RYR86VH EBCI-LICJ

Flight info

Callsign RYR86VH
Flight time N/A
Altitude 35000
Route RITAX UT27 ROUSY DCT GTQ DCT DEVDI DCT ODINA DCT ELB DCT GIANO
Aircraft B738/M-SDE2E3FGHIRWXY/LB1

Departure

Time 2026-05-04 13:03
Airport Brussels South Charleroi Airport (EBCI)

Arrival

Time N/A
Airport Falcone–Borsellino Airport (LICJ)
Time Latitude Longitude Altitude Speed Heading
2026-05-04 12:36 50.46871 4.47098 584 ft 0 kts 335°
2026-05-04 12:55 50.46867 4.47100 584 ft 3 kts 335°
2026-05-04 12:55 50.46846 4.47116 584 ft 2 kts 335°
2026-05-04 12:55 50.46824 4.47125 584 ft 4 kts 23°
2026-05-04 12:55 50.46808 4.47098 585 ft 5 kts 68°
2026-05-04 12:56 50.46804 4.47080 584 ft 3 kts 65°
2026-05-04 12:59 50.46804 4.47081 584 ft 1 kts 65°
2026-05-04 12:59 50.46811 4.47105 585 ft 3 kts 65°
2026-05-04 12:59 50.46820 4.47137 585 ft 3 kts 66°
2026-05-04 12:59 50.46839 4.47204 584 ft 10 kts 66°
2026-05-04 13:00 50.46875 4.47324 584 ft 13 kts 65°
2026-05-04 13:00 50.46911 4.47450 585 ft 12 kts 65°
2026-05-04 13:00 50.46937 4.47557 585 ft 9 kts 92°
2026-05-04 13:00 50.46914 4.47603 587 ft 2 kts 142°
2026-05-04 13:01 50.46868 4.47639 589 ft 9 kts 157°
2026-05-04 13:01 50.46843 4.47656 591 ft 0 kts 155°
2026-05-04 13:01 50.46812 4.47678 593 ft 10 kts 155°
2026-05-04 13:01 50.46752 4.47721 594 ft 9 kts 155°
2026-05-04 13:02 50.46692 4.47711 592 ft 12 kts 232°
2026-05-04 13:02 50.46562 4.47272 595 ft 81 kts 245°
2026-05-04 13:02 50.46234 4.46160 590 ft 141 kts 245°
2026-05-04 13:02 50.45765 4.44558 800 ft 172 kts 245°
2026-05-04 13:03 50.45283 4.42783 1528 ft 182 kts 247°
2026-05-04 13:03 50.44776 4.40909 2326 ft 189 kts 243°
2026-05-04 13:03 50.44214 4.39024 3178 ft 190 kts 246°
2026-05-04 13:03 50.43682 4.37140 3724 ft 187 kts 246°
2026-05-04 13:04 50.43153 4.35182 4128 ft 201 kts 247°
2026-05-04 13:04 50.42564 4.33167 4588 ft 216 kts 244°
2026-05-04 13:04 50.41883 4.30944 4937 ft 233 kts 244°
2026-05-04 13:04 50.41177 4.28624 5539 ft 237 kts 244°
2026-05-04 13:05 50.40541 4.26233 6186 ft 239 kts 258°
2026-05-04 13:05 50.40692 4.23661 6808 ft 243 kts 293°
2026-05-04 13:05 50.41748 4.21534 7183 ft 257 kts 323°
2026-05-04 13:05 50.43312 4.20164 7750 ft 258 kts 335°
2026-05-04 13:06 50.44960 4.19021 8278 ft 260 kts 336°
2026-05-04 13:06 50.46632 4.17910 8818 ft 262 kts 341°
2026-05-04 13:06 50.48444 4.17643 9308 ft 265 kts 11°
2026-05-04 13:06 50.50169 4.18649 9853 ft 266 kts 28°
2026-05-04 13:07 50.51795 4.20061 10322 ft 269 kts 30°
2026-05-04 13:07 50.53426 4.21522 10780 ft 271 kts 30°
2026-05-04 13:07 50.55070 4.22989 11326 ft 272 kts 30°
2026-05-04 13:07 50.56732 4.24458 11819 ft 276 kts 30°
2026-05-04 13:08 50.58430 4.25942 12247 ft 281 kts 29°
2026-05-04 13:08 50.60145 4.27436 12716 ft 283 kts 29°
2026-05-04 13:08 50.61869 4.28938 13185 ft 284 kts 29°
2026-05-04 13:08 50.63552 4.30571 13607 ft 286 kts 43°
2026-05-04 13:09 50.64706 4.33108 14009 ft 286 kts 64°
2026-05-04 13:09 50.65547 4.35947 14433 ft 287 kts 66°
2026-05-04 13:09 50.66365 4.38839 14813 ft 289 kts 67°
2026-05-04 13:09 50.67185 4.41742 15204 ft 291 kts 66°
2026-05-04 13:10 50.68015 4.44659 15609 ft 292 kts 66°
2026-05-04 13:10 50.68858 4.47593 15996 ft 294 kts 66°
2026-05-04 13:10 50.69708 4.50537 16385 ft 296 kts 66°
2026-05-04 13:10 50.70563 4.53498 16781 ft 297 kts 66°
2026-05-04 13:11 50.71422 4.56472 17160 ft 299 kts 66°
2026-05-04 13:11 50.71964 4.59620 17473 ft 300 kts 90°
2026-05-04 13:11 50.71658 4.62848 17863 ft 298 kts 107°
2026-05-04 13:11 50.71053 4.65944 18239 ft 300 kts 108°
2026-05-04 13:12 50.70395 4.69121 18557 ft 301 kts 109°
2026-05-04 13:12 50.69755 4.72221 18880 ft 302 kts 110°
2026-05-04 13:12 50.69110 4.75388 19185 ft 304 kts 109°
2026-05-04 13:12 50.68470 4.78575 19481 ft 306 kts 109°
2026-05-04 13:13 50.67831 4.81782 19853 ft 307 kts 110°
2026-05-04 13:13 50.67187 4.85014 20212 ft 310 kts 110°
2026-05-04 13:13 50.66536 4.88261 20536 ft 311 kts 112°
2026-05-04 13:13 50.65503 4.91202 20799 ft 306 kts 134°
2026-05-04 13:14 50.64031 4.93608 21177 ft 306 kts 137°
2026-05-04 13:14 50.62516 4.95974 21510 ft 307 kts 138°
2026-05-04 13:14 50.60989 4.98340 21817 ft 309 kts 138°
2026-05-04 13:14 50.59459 5.00714 22098 ft 310 kts 138°